Vorticity
8 6 6 6 7 6 6 5 6 7 6 7 6 5 4 3 0 4 13 11 4 2 2 3 5 3 3 4 1 7 4 -1 4 3 -3 5 2 12 7 12 10 5 4
5 5 5 7 6 6 6 7 6 5 5 6 6 4 5 3 2 2 2 6 12 6 2 2 5 4 4 3 5 2 2 4 1 1 4 1 5 -2 27 1 11 7 6
8 11 11 12 15 19 19 15 13 11 6 6 7 6 5 4 4 4 4 5 6 14 11 4 3 3 5 4 3 4 5 7 1 5 3 0 3 4 3 12 7 6 4
45 51 45 42 41 39 34 27 18 19 27 30 29 22 17 11 8 6 3 6 4 8 13 13 5 1 5 4 5 6 1 4 6 5 2 2 0 -4 11 9 -20 7 8
12 5 9 6 6 10 14 34 38 32 40 22 21 21 24 30 23 12 15 15 9 6 8 10 12 5 3 7 3 4 7 4 7 6 4 0 1 5 8 -3 28 19 -4
8 2 6 -2 -1 6 9 19 22 8 6 8 10 16 21 25 25 22 24 17 17 14 12 9 13 12 5 4 5 1 5 7 4 6 3 4 0 1 6 -0 7 -3 -5
15 14 20 28 23 5 26 25 29 17 11 12 16 16 15 18 20 19 16 21 20 17 10 14 11 14 16 5 8 6 5 6 5 5 6 -0 5 5 1 5 5 9 3
22 20 27 10 12 25 18 19 26 25 18 15 11 10 16 22 24 27 22 13 16 19 16 13 11 11 13 18 2 7 7 6 7 5 5 5 2 1 5 -3 7 7 10
18 22 8 11 -10 14 18 29 -7 46 17 11 13 42 49 43 34 31 26 18 15 18 17 14 13 12 12 13 17 2 4 7 7 8 3 5 7 4 3 10 10 -1 8
1 5 10 16 22 -4 9 14 3 27 17 7 35 49 51 42 40 29 31 17 16 14 18 16 13 8 11 14 16 20 13 8 9 6 7 7 8 5 5 5 2 9 1
17 8 9 34 7 29 10 24 46 -17 26 7 35 45 44 40 32 44 29 16 18 11 16 15 16 10 10 14 13 13 13 12 10 9 9 10 8 11 7 10 4 6 -8
5 9 14 16 29 20 15 20 24 26 -19 5 21 34 40 37 44 27 20 15 19 13 15 13 14 12 8 18 16 14 13 14 13 11 12 10 7 6 4 2 25 -6 16
10 9 23 -0 10 19 46 8 27 15 16 24 12 23 30 30 23 20 17 20 14 11 12 12 14 10 10 13 15 17 13 11 14 12 11 8 2 6 7 2 5 5 2
11 22 18 13 21 13 20 30 19 24 25 -15 7 24 22 28 23 21 22 16 9 13 12 12 19 10 7 13 13 18 19 12 11 10 6 9 6 7 4 7 1 1 13
7 -1 1 4 2 7 31 15 35 21 22 15 7 6 -2 31 21 16 17 13 13 16 18 16 17 13 9 10 13 13 14 13 13 11 11 10 4 2 3 6 0 6 7
4 9 33 18 0 10 19 11 16 -4 33 59 55 33 10 38 22 28 15 12 11 11 15 14 19 22 23 22 16 13 11 13 12 9 10 7 11 10 9 6 11 11 5
1 12 -2 13 1 5 12 33 16 -28 19 43 35 5 33 18 21 32 38 34 29 17 29 41 31 24 27 30 34 25 7 5 3 8 10 12 11 12 12 8 2 2 2
2 10 2 6 22 4 2 13 -5 43 -9 17 59 20 22 17 10 7 2 -3 -1 -4 -11 -14 -6 26 3 34 18 21 40 51 55 44 53 42 43 32 40 26 36 40 35
3 5 6 10 -8 7 1 1 2 -3 13 4 34 -12 53 30 24 -3 13 17 -4 19 33 8 30 20 32 29 34 21 -9 -10 -12 0 107 28 6 42 11 -11 69 -15 130
9 23 7 6 11 6 6 2 -5 7 -1 -3 8 -9 29 -6 38 11 42 -18 6 64 52 55 75 49 76 77 54 58 22 7 -21 4 -4 11 1 4 -5 1 6 -0 4
22 14 7 9 3 1 1 2 1 -2 2 5 0 8 -0 5 6 -3 2 -4 1 4 -7 5 1 -5 4 -6 -3 -6 -4 1 -0 1 2 2 2 2 3 3 3 3 2
12 7 7 2 2 2 0 1 3 3 2 1 4 1 3 3 4 4 6 3 1 -2 -2 3 1 4 5 4 4 3 1 0 -0 -0 -1 -1 -1 -0 1 -0 -0 -0 2
13 10 11 6 2 3 3 1 -2 1 2 3 3 3 5 6 6 5 8 6 6 7 6 4 4 4 3 2 2 1 1 1 1 1 2 2 1 1 1 3 4 2 1
14 10 6 3 1 0 1 1 1 -2 4 4 5 5 6 6 5 6 10 10 8 6 7 5 4 4 3 2 3 4 5 7 6 6 6 7 6 2 0 3 5 4 3
8 6 6 4 3 1 -0 0 2 0 2 6 9 9 7 7 6 8 7 8 7 6 5 5 4 3 3 4 6 5 3 4 5 5 3 5 5 4 4 3 3 4 3
8 10 7 2 1 6 2 2 3 -0 1 3 7 9 12 10 9 6 7 8 6 4 4 3 3 2 3 3 4 5 3 4 2 4 4 5 4 4 8 8 6 3 2
Height
5728 5728 5728 5727 5726 5728 5727 5728 5728 5727 5727 5730 5734 5736 5738 5740 5743 5748 5754 5759 5765 5771 5776 5781 5784 5790 5794 5799 5804 5808 5809 5812 5816 5816 5820 5819 5821 5822 5824 5824 5824 5825 5826
5714 5712 5711 5709 5707 5707 5705 5705 5706 5704 5703 5706 5711 5711 5715 5720 5723 5729 5735 5739 5743 5749 5754 5762 5771 5777 5781 5786 5790 5796 5799 5803 5806 5809 5809 5811 5813 5817 5818 5817 5818 5818 5819
5697 5694 5691 5688 5685 5682 5679 5677 5676 5676 5678 5678 5678 5684 5688 5695 5702 5711 5715 5720 5724 5733 5741 5749 5757 5762 5769 5773 5778 5784 5787 5792 5797 5798 5801 5801 5806 5808 5809 5808 5809 5810 5812
5681 5676 5672 5669 5664 5661 5657 5653 5649 5649 5649 5647 5649 5654 5659 5665 5678 5683 5689 5696 5702 5711 5719 5728 5736 5745 5754 5761 5765 5770 5776 5780 5784 5790 5792 5794 5795 5798 5800 5800 5800 5803 5803
5670 5667 5661 5657 5652 5645 5641 5637 5632 5629 5626 5624 5625 5627 5629 5637 5647 5650 5660 5668 5679 5688 5699 5707 5716 5726 5736 5745 5751 5756 5762 5767 5773 5778 5783 5784 5784 5788 5791 5792 5792 5793 5794
5664 5659 5654 5648 5642 5633 5627 5621 5615 5612 5608 5605 5604 5603 5605 5611 5614 5621 5631 5642 5654 5665 5676 5688 5698 5709 5719 5728 5735 5742 5749 5755 5759 5765 5770 5774 5776 5779 5780 5781 5784 5784 5784
5656 5650 5644 5639 5633 5624 5615 5608 5602 5598 5593 5590 5586 5584 5583 5583 5586 5593 5603 5618 5630 5641 5657 5670 5680 5691 5703 5713 5721 5728 5736 5742 5746 5752 5759 5763 5766 5768 5770 5772 5771 5775 5774
5649 5641 5635 5631 5623 5613 5606 5597 5590 5584 5579 5574 5568 5561 5555 5554 5558 5566 5580 5595 5608 5623 5637 5649 5662 5674 5684 5695 5704 5713 5720 5728 5733 5738 5745 5751 5755 5757 5759 5761 5763 5762 5763
5643 5635 5629 5622 5613 5605 5595 5585 5577 5569 5565 5559 5545 5528 5518 5518 5527 5540 5556 5573 5589 5606 5619 5632 5646 5657 5667 5679 5688 5698 5707 5715 5722 5727 5732 5738 5742 5746 5748 5751 5753 5753 5752
5638 5631 5624 5615 5605 5598 5587 5576 5566 5558 5554 5542 5522 5502 5493 5495 5505 5518 5536 5558 5575 5591 5606 5621 5633 5643 5654 5664 5673 5683 5692 5701 5709 5715 5719 5726 5731 5734 5738 5739 5742 5741 5744
5635 5629 5620 5608 5599 5590 5581 5568 5558 5552 5543 5531 5511 5493 5486 5487 5497 5512 5529 5547 5564 5580 5596 5608 5619 5630 5641 5650 5658 5667 5676 5686 5694 5702 5707 5713 5717 5722 5725 5728 5730 5729 5731
5630 5623 5614 5605 5595 5586 5575 5563 5553 5547 5538 5524 5509 5496 5489 5489 5499 5513 5529 5542 5559 5573 5586 5598 5609 5621 5632 5641 5648 5657 5664 5672 5680 5688 5694 5699 5703 5708 5712 5715 5716 5720 5723
5629 5622 5612 5604 5594 5583 5570 5560 5550 5543 5535 5524 5515 5506 5501 5502 5510 5521 5534 5546 5557 5569 5580 5591 5602 5611 5621 5630 5637 5644 5651 5659 5666 5673 5680 5686 5690 5695 5699 5701 5704 5706 5712
5629 5621 5612 5604 5594 5584 5572 5560 5551 5543 5536 5530 5521 5516 5514 5515 5520 5527 5536 5546 5556 5566 5577 5587 5597 5605 5613 5620 5627 5635 5642 5649 5656 5662 5667 5672 5678 5682 5686 5687 5690 5693 5696
5633 5625 5616 5607 5598 5589 5578 5568 5557 5549 5542 5534 5529 5525 5522 5524 5525 5531 5540 5548 5557 5566 5574 5582 5590 5598 5604 5610 5616 5622 5629 5636 5642 5649 5654 5659 5664 5667 5670 5672 5676 5680 5683
5635 5627 5619 5610 5603 5595 5585 5575 5568 5559 5549 5539 5532 5530 5531 5533 5534 5537 5542 5549 5556 5564 5571 5579 5586 5592 5597 5603 5607 5612 5618 5624 5629 5635 5639 5645 5650 5654 5659 5663 5667 5670 5669
5635 5630 5623 5615 5609 5602 5593 5583 5576 5567 5558 5549 5542 5541 5541 5542 5542 5546 5551 5557 5563 5568 5574 5578 5583 5588 5592 5594 5597 5601 5606 5613 5620 5626 5631 5635 5640 5644 5647 5651 5654 5654 5657
5635 5630 5626 5620 5613 5609 5602 5592 5586 5577 5569 5562 5556 5553 5551 5551 5554 5557 5560 5564 5568 5573 5576 5578 5580 5584 5586 5589 5593 5596 5601 5607 5614 5619 5622 5625 5628 5632 5636 5639 5642 5644 5647
5635 5630 5626 5622 5618 5613 5609 5602 5597 5590 5582 5575 5572 5568 5563 5561 5562 5564 5567 5571 5572 5574 5576 5577 5578 5582 5587 5588 5592 5597 5602 5607 5610 5617 5617 5620 5624 5628 5630 5633 5636 5637 5636
5634 5630 5628 5624 5620 5617 5613 5608 5604 5600 5594 5589 5586 5582 5578 5575 5574 5573 5575 5575 5575 5576 5576 5578 5579 5584 5585 5588 5594 5597 5603 5607 5609 5609 5617 5618 5622 5624 5626 5629 5630 5630 5631
5633 5631 5629 5626 5623 5619 5615 5613 5609 5606 5603 5599 5596 5594 5591 5589 5588 5586 5585 5586 5585 5586 5587 5588 5589 5592 5594 5596 5599 5603 5604 5607 5608 5610 5613 5617 5618 5619 5621 5621 5622 5623 5623
5633 5631 5629 5627 5625 5623 5619 5617 5614 5611 5609 5606 5604 5602 5601 5599 5597 5595 5594 5594 5593 5593 5594 5594 5594 5596 5597 5598 5600 5602 5604 5606 5607 5609 5611 5613 5614 5614 5614 5613 5613 5612 5611
5633 5631 5630 5627 5625 5623 5621 5619 5617 5614 5612 5611 5608 5607 5605 5603 5602 5601 5599 5598 5597 5597 5597 5597 5597 5598 5599 5600 5601 5602 5603 5604 5604 5606 5606 5606 5606 5605 5604 5603 5601 5598 5595
5630 5630 5629 5628 5625 5623 5621 5619 5617 5615 5612 5610 5609 5608 5607 5605 5604 5602 5601 5600 5599 5598 5598 5597 5598 5598 5598 5599 5599 5600 5600 5600 5601 5600 5599 5598 5597 5595 5592 5589 5586 5582 5578
5628 5626 5625 5625 5624 5622 5619 5617 5615 5613 5612 5610 5608 5607 5606 5604 5603 5602 5600 5599 5598 5597 5596 5596 5595 5595 5594 5594 5594 5594 5594 5594 5593 5591 5590 5588 5585 5582 5579 5576 5571 5565 5561
5624 5623 5622 5619 5618 5617 5616 5615 5613 5611 5609 5607 5606 5604 5603 5602 5601 5600 5599 5598 5596 5595 5593 5592 5591 5590 5589 5589 5588 5587 5586 5585 5584 5582 5580 5577 5574 5571 5566 5561 5556 5549 5540